Location: Bannatyne
(13.0833°N, 59.5333°W)
Time: 06:39:00
(UTC+00:00)

Vanguard 2 Rocket - Pass Details

Date: 26 January 2020
Orbit: 554 x 3326 km, 32.9° (Epoch: 06 April)

Event Time Altitude Azimuth Distance (km) Brightness Sun altitude
Rises 06:17:59 0° 248° (WSW) 3,253 - -58.9°
Reaches altitude 10° 06:20:47 10° 254° (WSW) 2,092 - -58.2°
Maximum altitude 06:25:06 47° 329° (NNW) 757 - -57.2°
Drops below altitude 10° 06:28:53 10° 44° (NE) 1,824 - -56.3°
Sets 06:31:10 0° 51° (NE) 2,780 - -55.8°
